, AK

(GMT )
Anchorage

Weather History for PANC - September, 2013

Change the Weather History Date:

Thursday, September 12, 2013

  Actual Average Record
Temperature  
Mean Temperature 52 °F 50 °F  
Max Temperature 59 °F 57 °F 68 °F (1956)
Min Temperature 45 °F 43 °F 29 °F (1992)
Degree Days  
Heating Degree Days 13    
Month to date heating degree days 137  
Since 1 July heating degree days 478  
Cooling Degree Days 0    
Month to date cooling degree days 0  
Year to date cooling degree days 21  
Growing Degree Days 3 (Base 50)    
Moisture  
Dew Point 45 °F    
Average Humidity 78    
Maximum Humidity 93    
Minimum Humidity 62    
Precipitation  
Precipitation T in 0.10 in 0.76 in (1966)
Month to date precipitation 3.72 1.22  
Year to date precipitation 17.08 10.51  
Snow  
Snow 0.00 in 0.00 in 0.00 in ()
Month to date snowfall 0.0 0.0  
Since 1 July snowfall 0.0 0.0  
Since 1 September snowfall 0.0 0.0  
Snow Depth 0.00 in    
Sea Level Pressure  
Sea Level Pressure 29.95 in    
Wind  
Wind Speed 5 mph (SE)    
Max Wind Speed 9 mph    
Max Gust Speed 26 mph    
Visibility 10 miles    
Events Rain    
T = Trace of Precipitation, MM = Missing Value Source: NWS Daily Summary

Daily Weather History Graph

Daily Weather History Graph

Search for Another Location

Airport or City:

Trip Planner

Search our weather history database for the weather conditions in past years. The results will help you decide how hot, cold, wet, or windy it might be!

Date:

Astronomy

Sep. 12, 2013 Rise Set
Actual Time 7:20 AM AKDT 8:30 PM AKDT
Civil Twilight 6:35 AM AKDT 9:14 PM AKDT
Nautical Twilight 5:40 AM AKDT 10:09 PM AKDT
Astronomical Twilight 4:35 AM AKDT 11:13 PM AKDT
Moon 4:51 PM AKDT (9/12) 11:43 PM AKDT (9/12)
Length of Visible Light 14h 38m
Length of Day
13h 09m
First Quarter, 51% of the Moon is Illuminated
Sep 12
First Quarter
Sep 19
Full
Sep 26
Last Quarter
Oct 4
New
Oct 11
First Quarter

Hourly Weather History & Observations

Time (AKDT) Temp. Dew Point Humidity Pressure Visibility Wind Dir Wind Speed Gust Speed Precip Events Conditions
12:53 AM 54.0 °F 46.9 °F 77% 29.90 in 10.0 mi South 3.5 mph - 0.00 in Rain Light Rain
1:53 AM 53.1 °F 48.9 °F 86% 29.92 in 10.0 mi East 6.9 mph - 0.00 in Rain Light Rain
2:53 AM 53.1 °F 48.9 °F 86% 29.94 in 10.0 mi SSE 3.5 mph - 0.00 in   Overcast
3:53 AM 54.0 °F 48.0 °F 80% 29.94 in 10.0 mi SE 5.8 mph - N/A   Overcast
4:34 AM 53.6 °F 44.6 °F 72% 29.95 in 10.0 mi Calm Calm - N/A   Overcast
4:42 AM 53.6 °F 44.6 °F 72% 29.95 in 10.0 mi SW 8.1 mph - N/A   Overcast
4:53 AM 54.0 °F 43.0 °F 66% 29.95 in 10.0 mi West 4.6 mph - N/A   Overcast
5:53 AM 50.0 °F 46.0 °F 86% 29.95 in 10.0 mi NE 9.2 mph - N/A   Scattered Clouds
6:53 AM 48.9 °F 46.0 °F 90% 29.96 in 10.0 mi NE 6.9 mph - N/A   Mostly Cloudy
7:53 AM 48.0 °F 45.0 °F 89% 29.97 in 10.0 mi SSE 3.5 mph - N/A   Mostly Cloudy
8:53 AM 48.9 °F 46.0 °F 90% 29.97 in 10.0 mi Calm Calm - N/A   Mostly Cloudy
9:53 AM 50.0 °F 46.9 °F 89% 29.98 in 10.0 mi Calm Calm - N/A   Mostly Cloudy
10:53 AM 55.0 °F 46.9 °F 74% 29.98 in 10.0 mi Calm Calm - N/A   Mostly Cloudy
11:53 AM 54.0 °F 46.9 °F 77% 29.98 in 10.0 mi NE 4.6 mph - N/A   Mostly Cloudy
12:53 PM 55.9 °F 46.9 °F 72% 29.99 in 10.0 mi NE 6.9 mph - N/A   Mostly Cloudy
1:53 PM 59.0 °F 46.0 °F 62% 29.99 in 10.0 mi Variable 6.9 mph - N/A   Mostly Cloudy
2:53 PM 59.0 °F 46.9 °F 64% 29.98 in 10.0 mi NE 8.1 mph - N/A   Mostly Cloudy
3:53 PM 60.1 °F 46.9 °F 62% 29.96 in 10.0 mi NE 4.6 mph - N/A   Mostly Cloudy
4:53 PM 59.0 °F 46.0 °F 62% 29.95 in 10.0 mi Variable 3.5 mph - N/A   Mostly Cloudy
5:53 PM 57.9 °F 43.0 °F 58% 29.93 in 10.0 mi SSE 18.4 mph 26.5 mph N/A   Mostly Cloudy
6:53 PM 57.0 °F 43.0 °F 59% 29.92 in 10.0 mi SSE 12.7 mph 25.3 mph N/A   Mostly Cloudy
7:53 PM 57.0 °F 42.1 °F 57% 29.92 in 10.0 mi SSE 15.0 mph - N/A   Mostly Cloudy
8:53 PM 55.9 °F 42.1 °F 60% 29.93 in 10.0 mi SE 9.2 mph - N/A   Overcast
9:53 PM 55.0 °F 43.0 °F 64% 29.93 in 10.0 mi SE 18.4 mph 26.5 mph N/A   Overcast
10:53 PM 55.9 °F 42.1 °F 60% 29.93 in 10.0 mi SSE 12.7 mph 20.7 mph N/A   Overcast
11:53 PM 55.0 °F 42.1 °F 62% 29.94 in 10.0 mi SE 10.4 mph 24.2 mph N/A   Overcast